RH
4 4 4 4 4 4 5 5 5 6 6 5 5 5 7 9 10 12 13 15 18 20 22 21 18 15 13 10 7 5 4 3 3 3 2 2 2 2 2 2 2 2 3 3 3 3 3 4 3 4 4 4 5 5 9 11 10 10 12 13 15 17 18 18 20 23 25 27 29 30 33 35 37 39 39 40 42 43 45 47 44 37 44 49 46 47 47 47
4 4 4 5 5 5 5 6 6 6 5 5 6 7 11 14 16 18 20 22 22 23 22 21 20 18 17 15 10 5 3 3 3 3 2 2 2 2 2 2 3 2 3 3 2 3 3 3 3 3 3 4 6 8 12 13 12 12 13 15 16 18 20 21 23 25 28 30 31 33 35 37 39 39 39 40 40 39 39 42 41 38 46 52 51 54 56 57
5 5 5 5 5 6 6 6 5 5 6 8 9 10 14 17 18 20 22 22 22 21 21 21 23 23 22 20 15 9 5 3 2 3 2 2 2 2 2 2 2 2 2 2 2 3 3 3 3 3 3 5 8 11 15 15 13 13 14 16 18 20 22 24 25 27 30 33 34 36 37 39 41 40 38 36 34 33 34 39 40 39 47 53 56 60 64 66
6 6 6 6 6 6 5 5 5 7 12 15 15 12 14 16 19 21 23 24 25 25 24 24 23 21 21 22 20 13 6 4 3 3 2 2 2 2 2 2 2 2 2 2 2 2 3 3 3 4 5 7 9 11 15 16 14 14 16 18 21 23 24 26 27 29 32 34 36 38 38 39 40 39 35 32 31 32 34 39 41 43 48 53 59 64 69 71
7 7 7 6 6 6 6 7 10 14 17 18 18 17 18 21 24 27 28 28 29 29 28 27 25 21 20 21 21 16 11 9 5 2 2 2 2 2 2 2 2 3 3 3 3 3 3 4 4 5 7 8 10 11 14 16 14 15 18 21 24 25 26 28 30 32 34 35 38 39 39 40 40 37 32 30 30 32 37 40 42 45 49 53 61 67 71 74
13 11 9 8 8 10 12 14 17 18 19 21 23 24 26 27 28 29 29 29 28 28 28 27 26 23 21 20 21 19 17 14 8 3 3 3 2 3 4 4 4 4 4 4 4 4 4 5 5 7 8 9 12 13 14 16 17 18 21 24 26 27 28 29 31 33 35 37 39 40 40 40 40 35 29 29 31 34 39 42 45 48 51 55 63 68 71 75
19 17 15 15 15 16 17 18 19 19 22 25 26 27 28 28 28 28 28 27 26 26 26 26 25 23 22 22 22 22 20 18 13 8 6 6 5 6 8 8 8 8 7 7 7 6 6 6 8 9 10 13 15 16 17 18 21 21 23 25 27 29 30 30 32 33 35 37 38 39 39 39 37 33 31 31 32 36 40 43 47 51 52 57 64 67 70 75
19 19 19 18 18 18 19 19 20 22 24 26 27 28 28 28 28 28 27 26 26 25 25 25 24 23 22 23 24 24 22 21 20 16 12 10 9 10 11 11 11 12 11 10 10 9 8 10 12 12 13 16 17 18 20 21 23 23 24 26 28 30 29 29 31 32 34 36 36 36 35 35 34 33 33 34 33 35 40 44 48 52 53 56 62 65 68 74
20 20 19 19 19 20 21 22 23 25 26 27 28 28 28 29 28 28 26 25 24 24 24 24 23 23 22 23 25 25 23 23 23 21 18 14 14 14 13 13 13 14 14 13 13 13 13 14 15 16 17 18 19 21 23 23 24 25 25 27 27 27 27 27 30 32 34 37 36 33 31 32 34 34 35 35 34 35 39 45 48 52 53 55 60 63 66 74
24 23 23 23 23 24 26 27 27 28 28 28 29 28 28 28 28 27 25 23 22 23 23 23 22 22 23 23 25 25 24 24 23 22 21 18 17 16 15 16 15 15 16 16 16 16 17 17 18 20 20 20 21 23 24 23 24 25 25 26 26 24 25 28 33 35 37 39 38 35 34 34 35 34 35 35 33 34 38 44 47 50 52 54 58 60 64 72
28 28 28 28 28 29 29 29 28 28 27 27 27 27 27 27 27 26 25 24 24 24 24 24 23 22 23 23 23 24 24 24 22 21 20 19 19 18 18 18 18 19 19 19 19 18 19 19 20 21 22 21 22 24 24 24 26 27 27 26 25 24 25 29 34 37 38 38 38 39 38 38 37 34 33 33 33 35 37 41 45 47 51 54 57 59 63 71
29 29 29 28 28 28 27 26 25 25 24 25 25 25 26 26 27 26 25 25 26 27 27 28 27 25 23 22 21 23 24 24 22 22 21 21 21 21 21 21 21 20 21 21 20 20 20 20 21 21 22 22 22 23 23 25 27 29 31 27 23 25 28 30 33 36 38 37 38 41 39 38 38 36 35 34 34 36 37 40 43 46 51 55 57 58 62 69
28 27 27 26 27 26 25 24 23 23 23 24 24 24 25 25 26 25 23 23 25 27 27 28 28 26 23 20 22 24 24 24 23 23 23 23 23 22 22 21 21 20 21 21 19 21 21 20 21 20 20 21 21 20 21 26 30 31 33 29 25 28 31 32 34 36 36 37 39 41 39 36 37 36 36 36 36 38 39 41 43 46 51 54 56 57 62 68
26 25 25 25 25 25 24 24 24 24 24 25 25 24 23 23 24 23 22 22 22 24 25 26 25 24 20 20 25 25 24 25 25 25 24 24 23 21 21 21 21 21 21 20 19 20 19 19 21 18 20 22 21 20 21 27 32 33 33 32 30 31 32 33 33 34 36 37 39 41 38 34 36 36 36 37 37 38 40 42 44 47 50 53 55 57 62 69
24 24 24 24 24 24 23 23 24 24 25 25 25 24 23 22 22 22 21 21 20 20 21 22 21 20 18 20 25 25 25 25 25 24 22 22 22 21 22 23 23 22 21 19 17 18 19 22 21 14 17 22 21 22 24 28 32 33 32 32 32 32 32 33 31 32 35 37 39 41 37 33 35 36 36 37 38 39 41 43 45 47 50 53 55 58 64 71
22 22 22 22 22 22 22 22 22 22 22 23 23 23 23 23 22 21 21 21 20 19 19 18 18 17 16 19 23 24 25 24 22 21 21 21 21 20 21 21 21 20 20 17 18 21 22 25 23 16 17 20 21 22 24 27 31 32 32 32 31 31 34 35 34 33 33 36 38 38 35 33 35 35 36 37 39 40 42 45 46 49 50 53 57 59 67 74
20 20 19 19 20 19 19 20 20 20 20 20 20 21 21 21 20 20 20 19 19 19 18 17 16 15 15 20 23 23 22 21 21 22 21 21 20 19 17 17 16 16 17 16 18 21 22 23 21 17 19 22 24 25 25 27 31 32 32 31 30 32 34 36 37 36 35 35 35 35 33 32 34 36 37 38 39 41 43 46 48 51 52 55 59 61 69 75
19 18 18 18 18 18 18 18 18 18 19 19 19 19 19 19 19 19 18 18 17 17 17 16 16 15 16 18 19 19 19 20 20 21 20 19 18 18 16 16 16 15 16 16 18 20 19 19 18 17 20 21 23 26 26 28 31 32 31 31 31 33 34 35 36 36 37 35 35 36 33 30 32 34 36 37 39 40 43 47 50 52 54 58 60 63 70 74
17 17 17 17 17 18 18 18 19 18 17 17 17 17 17 17 18 18 18 17 16 16 16 15 14 13 15 16 16 17 17 17 17 17 17 16 15 16 16 16 16 16 16 16 17 19 18 17 18 19 20 22 22 24 26 28 31 32 30 30 32 32 32 33 34 34 35 35 35 35 31 28 30 32 34 36 38 39 43 47 50 53 55 59 62 65 71 74
16 17 17 17 16 16 17 18 19 19 18 18 17 17 17 17 17 16 16 15 14 15 16 15 13 13 15 15 16 16 15 16 16 15 15 14 14 15 14 14 14 15 16 15 15 18 18 16 18 20 21 24 24 26 28 28 30 31 29 29 29 30 30 31 32 33 33 32 32 31 30 28 28 29 31 34 35 37 41 46 50 54 56 60 62 66 72 74
14 15 15 16 16 16 16 17 17 18 17 17 17 17 18 17 15 14 13 13 15 17 17 16 15 14 14 15 16 16 16 16 15 14 14 14 14 14 15 14 14 14 14 13 15 17 15 12 15 21 22 24 25 27 28 27 30 31 29 28 28 28 29 31 32 32 33 31 30 29 27 26 26 26 28 29 31 33 38 44 50 54 57 60 62 67 74 73
14 14 14 14 15 16 16 16 16 16 16 16 17 16 16 15 14 14 12 12 16 17 17 17 17 16 16 16 16 16 15 14 14 14 14 15 15 16 17 15 13 13 14 14 13 11 9 10 16 20 20 23 25 27 27 27 30 30 29 29 28 28 28 30 31 31 32 30 27 28 26 22 22 23 24 25 25 28 34 41 50 54 57 60 63 69 74 72
14 13 13 13 14 15 15 16 15 15 15 15 16 16 16 15 14 14 12 13 16 17 18 18 18 17 17 17 17 17 15 13 14 15 15 16 16 16 17 14 12 12 13 12 10 7 8 13 16 16 17 20 23 26 28 29 32 31 29 29 28 28 28 29 30 30 31 30 28 28 26 22 22 23 24 24 24 25 31 38 46 52 56 60 65 68 69 69
13 13 14 13 13 13 13 14 13 14 14 15 16 16 16 15 15 14 13 14 17 18 19 18 17 17 17 17 17 17 15 14 15 15 17 17 16 16 15 13 12 11 10 10 9 8 11 15 15 16 17 19 22 25 27 29 31 28 27 28 28 29 30 30 31 31 31 31 30 29 28 23 23 25 25 25 26 25 29 35 40 47 53 60 65 63 60 61
12 13 13 13 13 13 13 13 13 13 13 15 16 15 15 15 14 14 13 15 18 19 19 19 17 17 17 16 16 16 15 14 15 15 17 16 16 16 13 12 12 10 10 11 11 10 13 15 15 17 18 19 21 22 22 24 25 23 23 25 26 27 29 28 30 31 31 33 33 36 39 31 22 24 25 25 26 25 27 32 36 44 52 59 63 57 52 51
13 12 12 12 12 11 12 12 12 13 13 14 15 14 14 14 15 16 14 14 16 18 19 18 18 17 18 17 16 16 15 15 15 15 16 15 15 15 13 13 12 12 12 11 12 13 15 16 15 16 16 17 17 16 18 19 19 20 20 21 23 25 27 27 30 30 31 34 36 42 50 42 25 21 25 25 25 25 26 31 36 43 51 58 60 55 48 46
11 11 11 11 11 11 11 11 11 11 12 13 14 14 15 15 17 17 15 14 15 17 18 17 17 17 17 17 17 16 15 16 16 15 16 15 15 15 14 13 13 13 13 12 13 16 17 18 17 16 15 14 14 14 16 17 19 20 18 19 21 22 24 26 29 31 32 34 37 40 48 50 35 22 23 25 25 26 26 31 37 44 51 57 57 54 49 45
11 11 11 10 10 10 10 10 10 11 11 11 12 13 14 14 15 14 14 17 18 17 18 17 16 16 16 15 16 15 15 16 16 16 17 17 16 17 16 15 14 14 14 14 15 17 19 18 18 17 15 14 13 14 16 18 19 18 19 21 20 21 24 25 27 30 33 35 35 38 45 52 41 21 22 27 25 28 28 31 38 45 53 56 56 56 51 45
12 11 11 10 10 10 10 10 10 10 11 10 10 12 12 12 13 11 12 18 18 16 17 17 15 16 16 15 15 15 15 16 16 16 17 18 18 19 18 16 16 16 16 17 16 17 19 17 17 16 15 16 16 17 17 17 18 18 19 20 22 24 22 23 27 28 33 36 33 37 46 55 46 23 21 28 27 30 30 31 37 45 51 52 53 57 54 46
10 9 9 9 9 9 10 10 10 10 10 10 10 11 11 12 12 11 14 18 17 15 16 16 15 16 16 16 15 15 15 15 15 15 16 16 17 19 21 19 18 18 17 18 18 17 18 18 18 18 17 19 19 20 19 18 19 18 18 18 22 26 24 26 28 25 36 43 36 35 41 54 56 31 20 26 28 32 33 31 36 43 48 48 50 57 56 49
8 7 7 8 8 9 9 10 10 10 10 10 10 10 11 11 11 12 17 18 15 13 15 15 15 16 15 15 14 14 14 14 14 15 14 14 15 16 20 19 18 20 19 18 19 20 20 19 20 20 20 21 20 22 21 21 21 21 21 19 18 22 21 22 25 28 44 48 36 37 40 50 57 35 20 27 29 33 35 34 39 43 45 45 46 54 58 53
7 7 7 8 8 8 9 9 9 9 10 10 10 11 10 10 11 14 17 16 13 12 14 14 14 14 14 14 14 14 14 14 14 15 14 15 14 13 14 14 14 19 19 16 18 21 21 21 21 21 22 22 21 23 22 23 25 24 24 20 21 30 33 38 49 49 48 40 30 38 45 47 45 28 21 28 30 33 37 37 41 42 43 42 41 49 57 55
8 8 8 8 8 9 9 9 9 8 9 9 9 11 9 9 12 14 14 14 12 12 13 13 13 13 13 13 14 13 14 13 13 13 13 13 13 11 12 12 12 15 16 14 15 18 20 22 21 21 23 23 22 23 23 24 26 25 25 25 30 46 56 66 75 59 41 34 31 40 50 44 32 23 24 28 29 34 36 37 41 41 42 41 38 43 51 54
9 8 8 9 8 9 9 9 9 8 8 8 8 9 8 8 11 12 12 12 11 12 12 12 12 12 12 12 13 13 13 13 13 13 13 12 12 12 12 12 12 12 13 14 14 14 18 22 19 18 21 23 23 26 25 26 28 28 29 31 34 42 47 53 62 51 39 42 39 37 42 36 26 23 24 26 28 32 34 36 40 41 42 42 37 38 45 51
10 9 9 9 9 10 10 9 9 9 9 8 7 7 7 8 10 10 10 10 10 11 11 11 11 11 11 11 12 13 13 13 13 13 13 12 12 11 11 12 12 12 12 13 14 13 15 18 17 16 17 18 21 25 27 28 30 31 32 34 36 39 40 44 51 47 49 61 56 40 32 25 23 24 24 26 28 29 32 34 38 41 42 42 38 36 40 47
11 10 10 10 10 10 10 10 9 8 9 8 8 8 7 8 9 9 9 10 10 10 10 11 11 10 10 10 10 11 12 12 12 13 13 12 12 11 11 12 11 12 12 11 13 13 13 15 17 15 14 15 17 21 27 29 30 31 34 36 36 40 45 48 50 50 59 70 56 36 30 24 22 24 23 25 28 28 31 33 36 40 41 41 38 34 36 44
12 11 11 11 10 11 11 10 10 9 9 9 8 8 8 8 9 8 9 9 9 10 11 11 11 10 9 8 8 9 10 10 10 11 11 10 12 11 11 11 10 11 11 11 13 13 13 14 15 15 14 14 14 16 22 28 31 33 36 39 38 42 47 49 54 59 67 73 55 34 34 31 27 28 23 23 28 29 31 32 34 38 39 38 35 32 34 39
12 12 12 11 11 11 11 11 10 9 9 9 8 8 8 8 8 8 8 8 8 9 9 10 10 9 8 8 8 8 9 9 8 9 9 9 10 12 11 10 9 10 10 11 12 12 14 13 13 15 13 13 13 14 19 25 29 32 35 39 39 41 44 46 56 58 57 72 69 46 38 32 26 24 20 22 27 27 29 31 33 36 35 33 31 30 33 35
12 12 12 12 12 12 12 11 11 10 9 9 8 8 8 8 8 8 8 8 8 8 8 8 8 8 8 8 8 8 8 8 8 8 9 8 9 12 12 9 9 10 9 10 11 11 14 14 13 13 12 13 12 14 18 21 24 29 33 37 39 41 42 43 50 50 51 72 79 61 48 33 17 16 19 22 26 25 26 30 33 34 31 29 29 29 31 33
11 11 11 13 13 12 12 12 11 11 10 9 9 9 9 9 8 8 8 8 9 8 8 8 8 8 8 8 9 8 8 8 8 8 9 9 9 11 12 9 9 10 9 10 11 10 13 15 13 11 11 12 11 13 16 17 22 28 30 32 35 39 42 41 43 44 50 73 86 81 68 33 7 13 20 20 23 23 26 30 33 33 29 27 29 29 30 30
8 9 11 12 12 12 12 12 12 11 10 10 9 9 9 9 9 9 9 9 9 9 8 8 8 8 8 9 9 9 9 9 9 9 9 9 10 10 11 10 9 10 9 10 11 11 13 14 13 11 10 10 10 11 14 18 23 26 26 27 28 32 37 43 48 43 44 61 72 80 75 35 5 13 18 17 21 22 27 33 32 30 27 26 28 28 28 28
4 6 8 10 11 12 12 12 11 11 11 10 10 10 9 9 9 9 9 9 9 9 9 9 9 9 9 9 9 10 10 10 10 10 10 10 11 11 10 11 10 11 10 10 11 13 14 15 13 11 10 10 10 11 17 22 24 24 25 22 22 27 31 40 50 45 44 55 56 70 79 38 4 13 16 14 20 22 27 33 30 28 26 26 27 25 25 26
2 3 4 5 7 10 11 11 11 11 11 11 10 10 10 10 10 10 10 10 10 9 10 10 10 10 10 10 10 10 10 11 11 11 11 11 11 11 11 11 11 11 12 11 12 14 16 16 16 12 9 8 9 13 20 23 22 21 20 18 20 24 27 35 44 43 49 53 49 72 86 38 3 14 15 12 21 22 25 30 29 27 26 26 25 22 23 25
2 2 2 2 4 7 9 10 10 11 12 12 11 10 10 10 10 10 10 10 10 10 10 10 10 10 11 10 10 11 10 11 11 11 11 11 11 12 12 12 12 12 12 12 12 14 15 16 16 15 14 15 14 16 19 20 19 19 17 17 20 23 28 36 43 49 57 50 44 69 76 31 5 14 12 12 22 20 21 27 28 28 26 25 23 20 22 23
2 2 2 2 2 3 5 7 9 11 12 12 11 11 10 10 10 10 10 10 10 10 10 10 10 10 11 11 10 11 10 11 11 11 11 11 11 12 12 12 13 12 13 13 12 13 14 14 14 16 20 23 21 18 17 16 18 18 16 17 19 22 28 33 43 56 59 47 44 54 47 18 7 12 11 15 22 21 21 25 26 27 28 25 22 20 21 20
3 2 2 2 2 2 2 4 6 8 10 11 12 12 12 12 11 11 11 10 10 11 10 11 11 11 11 11 11 11 11 11 12 11 11 12 11 12 12 12 12 12 13 13 13 14 15 13 13 14 15 16 16 14 14 16 17 15 13 15 17 21 25 30 43 51 44 40 41 32 22 18 13 10 12 17 21 23 22 22 23 25 27 24 21 19 19 18
3 3 3 3 3 3 2 2 3 3 6 8 10 11 12 12 13 12 12 12 11 12 12 11 11 11 11 12 12 12 12 12 12 12 12 12 12 12 13 12 12 13 13 14 14 16 16 14 13 14 12 12 13 12 13 16 15 12 12 13 15 19 24 28 32 31 29 41 40 18 14 23 15 9 15 18 20 24 21 20 22 22 23 22 19 18 18 16
3 3 3 3 3 3 2 3 2 2 3 5 6 8 9 10 12 12 12 12 12 13 13 12 12 12 12 13 13 13 13 13 13 13 12 13 13 13 13 12 12 12 12 14 14 15 16 15 14 14 14 12 12 13 13 14 13 12 12 13 14 18 22 22 19 18 28 40 32 14 16 21 13 12 17 18 21 25 23 22 22 21 23 21 17 17 16 14
3 3 3 3 3 3 3 3 3 2 3 3 4 5 6 7 9 10 11 11 12 13 13 12 13 13 13 14 14 13 14 13 12 13 13 13 13 13 12 12 12 12 13 14 13 14 17 17 15 16 15 12 12 13 13 13 13 12 11 11 14 16 17 17 14 16 26 29 20 16 20 16 11 15 18 18 22 24 24 23 21 22 24 19 17 18 14 14
3 3 3 3 3 3 3 3 3 3 3 4 4 5 5 6 7 8 9 10 11 12 12 12 13 13 14 14 14 14 14 13 13 13 13 13 13 12 12 12 12 13 13 13 14 15 17 17 16 16 15 13 12 13 13 15 15 13 9 10 13 14 15 17 15 15 22 23 18 20 22 14 11 17 19 19 21 21 22 22 20 22 23 19 17 17 14 14
4 4 4 4 4 3 4 3 3 3 3 4 5 5 5 6 6 7 8 9 10 10 11 12 13 13 13 13 14 13 13 13 13 14 13 13 13 12 13 12 12 13 13 13 14 14 16 17 15 16 17 14 11 13 16 18 18 13 9 10 13 14 14 17 17 16 19 20 19 21 20 14 13 18 19 18 19 20 20 20 19 21 22 19 17 16 15 14
4 4 4 4 4 4 4 4 4 4 4 4 4 4 5 5 6 6 7 7 8 9 10 11 11 11 11 11 12 12 12 12 12 13 12 12 12 12 12 12 12 13 13 13 14 14 16 17 15 18 21 15 12 16 18 19 20 15 10 11 13 14 15 17 19 18 17 17 19 18 15 13 17 20 20 18 17 17 17 18 19 21 21 19 17 16 15 14
Wind_Speed
13 13 13 13 13 12 12 11 10 9 7 6 5 6 6 7 8 9 9 10 11 11 9 8 8 7 6 6 6 7 8 9 10 9 9 9 9 8 8 8 7 7 8 8 7 7 6 6 6 6 4 3 3 3 2 5 6 7 7 7 12 16 15 14 13 13 10 8 11 11 11 10 5 4 4 3 4 6 7 6 6 11 23 33 33 35 37 38
14 14 14 13 13 12 11 10 9 8 7 6 7 8 9 11 11 11 12 12 11 10 9 9 8 8 7 7 6 7 9 10 12 11 10 10 9 8 8 8 7 7 7 7 7 6 5 5 5 4 3 3 4 4 4 6 7 8 8 9 14 17 17 17 14 13 10 8 9 10 10 9 6 4 4 3 5 7 7 6 9 11 20 33 37 39 41 41
14 13 13 12 12 11 10 9 8 8 8 8 9 10 12 12 12 11 11 10 9 8 8 7 7 7 8 8 7 9 12 13 13 12 11 10 9 9 8 8 7 7 7 6 6 5 5 5 4 4 4 5 5 5 4 5 7 9 9 10 14 17 17 17 15 13 11 9 8 9 10 9 6 4 5 6 7 8 8 7 9 11 17 32 39 41 43 44
12 12 12 11 11 11 10 10 10 10 10 10 11 11 12 11 11 10 10 9 9 9 9 7 6 5 6 8 9 11 13 15 14 12 11 10 9 9 8 8 7 6 6 6 6 6 5 4 4 5 5 5 4 4 4 5 6 10 11 12 14 15 15 16 15 14 12 10 8 8 9 8 6 4 5 6 6 7 7 7 10 11 17 30 38 40 43 44
12 12 13 13 13 13 13 13 13 13 12 12 12 13 13 13 13 12 11 10 10 10 9 9 8 6 6 7 10 12 13 14 13 12 11 10 8 8 7 7 8 8 7 7 7 6 6 5 6 7 7 6 4 5 6 5 7 10 13 14 14 13 13 15 16 13 10 10 8 7 7 6 4 4 4 4 5 7 7 8 11 12 18 29 35 39 42 44
16 16 17 16 16 16 15 15 14 13 13 13 14 15 15 14 13 11 10 9 8 8 8 9 10 9 8 8 9 10 9 11 13 12 12 10 8 9 9 10 11 11 10 9 8 7 7 7 8 8 7 7 5 7 8 8 8 8 13 16 16 14 10 12 14 12 10 9 7 6 5 4 3 4 3 2 4 7 8 10 13 14 19 29 34 38 42 44
19 19 19 18 17 16 15 15 14 13 14 14 14 14 14 13 12 10 9 7 7 7 7 8 9 10 11 12 12 10 10 12 13 12 12 10 10 11 11 12 12 11 10 10 9 7 8 8 9 9 8 7 8 10 9 10 9 7 11 16 17 15 10 12 12 10 9 8 7 5 5 4 3 3 3 4 6 8 9 12 13 15 20 28 33 38 41 44
18 17 17 17 16 15 15 14 14 14 14 14 13 13 13 12 11 10 10 9 8 7 7 8 9 11 12 14 14 11 12 14 13 12 12 10 10 11 11 12 12 12 10 9 10 9 9 9 9 10 8 8 9 11 10 10 11 7 10 16 17 16 12 13 12 9 9 7 6 5 5 5 4 4 5 6 8 10 11 13 14 16 21 27 31 36 41 44
16 16 16 16 16 15 15 15 14 14 13 13 13 13 13 12 13 13 13 12 11 9 9 8 8 10 12 14 12 10 13 15 13 13 12 10 10 11 10 11 11 12 11 8 9 9 10 9 8 8 7 7 10 11 11 11 12 10 12 16 16 15 14 14 12 9 9 7 7 7 6 6 6 7 7 9 10 12 13 14 16 17 21 26 30 34 40 44
17 18 18 17 17 16 16 15 15 14 14 14 13 13 13 13 14 14 14 14 13 12 12 10 10 10 10 10 8 10 14 15 14 14 13 12 12 11 10 9 8 10 10 8 8 8 10 9 8 9 7 8 12 13 12 12 13 12 12 16 15 14 14 14 12 11 10 9 9 9 8 8 9 10 10 11 13 14 15 16 17 19 21 25 29 33 38 44
19 19 18 18 18 17 16 16 16 16 16 15 15 15 15 15 15 15 15 15 16 17 16 14 11 9 9 7 7 11 16 16 15 15 14 13 12 12 11 10 8 9 8 7 8 9 11 10 9 11 10 9 13 13 13 13 14 12 11 13 14 13 13 13 12 11 11 9 8 9 10 11 12 12 12 13 14 16 16 17 19 20 22 24 28 32 37 43
19 19 19 19 19 19 19 19 19 20 21 21 20 20 19 19 18 18 18 18 18 18 19 16 12 9 7 7 10 15 17 16 16 15 13 13 12 13 13 12 11 12 11 8 10 12 12 11 8 9 11 9 9 11 12 13 13 13 10 8 11 12 10 10 10 8 8 8 8 11 12 12 13 13 13 14 15 16 17 18 20 21 22 24 28 32 37 43
19 20 20 20 20 20 21 21 21 21 20 20 19 20 20 20 20 20 21 22 22 21 20 18 15 11 8 11 16 17 17 16 16 15 14 14 14 15 15 14 13 14 14 12 13 15 13 12 9 8 11 8 6 10 12 13 13 13 11 7 8 9 7 6 6 6 6 7 9 10 12 13 14 15 15 16 18 18 19 19 20 22 22 24 28 31 36 42
20 21 20 20 20 20 20 19 18 18 18 18 18 19 20 20 19 20 21 23 24 23 23 20 18 15 14 17 21 18 18 18 17 15 16 16 15 16 16 15 13 14 14 13 15 16 14 14 9 8 12 9 7 10 12 14 14 12 11 8 7 7 6 5 4 5 6 7 9 10 12 15 16 17 18 19 20 20 20 20 21 22 23 24 27 31 36 42
21 21 20 20 19 19 19 18 18 17 17 18 19 21 22 21 21 20 21 22 23 24 23 21 19 19 20 23 23 19 19 18 17 17 17 17 15 15 17 15 14 14 13 13 15 15 15 13 7 7 13 11 9 10 11 13 12 10 9 8 7 7 6 5 5 5 6 7 9 10 12 16 17 19 19 20 21 21 21 21 22 23 23 24 26 29 35 42
23 22 22 21 20 19 18 18 18 18 18 18 19 20 20 20 20 20 20 21 21 22 21 20 19 19 22 24 23 20 19 18 18 19 19 18 16 15 17 16 15 15 14 14 15 13 12 11 6 7 12 12 11 11 11 12 11 10 9 8 9 8 6 5 5 7 8 9 10 11 14 16 17 19 20 20 21 21 20 20 21 22 22 23 25 28 35 41
25 24 24 24 23 22 21 19 18 17 18 18 18 18 18 18 19 19 19 19 20 20 19 19 19 19 21 22 21 18 18 19 21 20 19 19 17 16 16 17 16 16 14 14 15 13 11 10 8 9 12 11 10 9 10 10 10 10 9 9 9 8 7 7 7 8 9 10 11 13 15 15 15 17 19 19 20 19 19 19 19 20 21 22 23 27 35 41
25 25 25 25 24 23 22 22 21 20 19 18 17 16 15 16 17 16 17 19 19 18 18 17 18 20 22 21 20 20 20 20 20 19 18 17 17 16 16 16 15 16 15 14 16 13 10 11 10 11 13 12 10 9 9 9 9 8 8 8 7 7 8 8 8 9 10 10 11 13 15 14 14 15 16 17 17 18 17 18 19 20 20 21 23 27 35 40
26 26 26 25 24 23 21 21 21 21 22 22 20 18 18 18 17 17 18 17 18 20 21 21 20 22 22 21 22 22 21 20 19 19 18 17 17 16 15 14 14 15 15 14 15 14 12 13 13 12 13 11 10 10 9 9 8 7 7 6 6 6 7 8 9 10 11 11 12 13 13 13 13 13 14 14 15 17 18 18 19 20 20 20 22 27 34 39
26 26 26 26 25 24 23 22 20 20 21 21 21 20 20 18 16 19 19 19 23 25 26 27 26 24 22 21 21 21 20 20 19 19 19 18 18 17 16 16 16 16 15 14 16 16 13 15 17 14 13 10 9 9 8 7 6 5 5 5 5 5 6 8 9 11 12 12 11 11 11 10 12 12 13 14 15 17 18 19 20 20 20 20 22 26 33 38
23 23 23 23 24 25 26 26 25 24 22 20 19 18 16 14 14 17 18 22 28 27 25 26 25 23 23 23 21 19 18 17 17 17 17 17 17 16 16 15 15 17 17 15 17 17 13 16 20 16 13 11 9 9 8 6 5 4 4 4 4 5 6 7 9 11 11 11 10 8 8 10 11 13 14 15 17 18 18 19 19 20 21 21 22 26 33 37
20 19 18 18 18 20 23 25 26 26 23 21 19 16 14 13 15 16 18 25 29 26 24 23 21 22 23 24 23 20 16 16 18 17 17 16 15 15 13 12 14 16 17 14 13 15 15 19 20 17 15 13 10 9 9 8 7 5 5 4 4 5 6 6 9 10 10 9 7 6 6 11 13 14 16 18 19 19 19 19 19 20 22 22 23 27 33 36
17 15 14 13 13 14 16 18 19 19 19 19 18 17 15 15 16 16 20 26 28 26 24 21 20 20 20 20 20 18 15 18 21 19 19 17 15 15 13 13 15 17 18 15 12 14 18 20 19 17 17 15 13 12 11 9 7 5 5 5 5 6 5 5 7 8 8 7 7 6 5 8 15 16 17 20 21 21 20 20 21 21 23 24 25 30 34 35
13 12 11 10 10 10 10 11 11 12 13 14 14 15 16 17 18 18 20 25 26 23 21 20 21 20 18 18 16 14 14 17 19 17 16 14 12 14 14 14 15 16 17 18 15 17 20 19 18 17 16 15 14 13 11 9 7 6 6 7 6 7 6 6 6 6 7 6 7 10 8 5 12 16 18 21 23 24 23 22 23 23 23 24 28 32 33 34
11 10 8 8 8 8 8 8 9 10 11 11 10 13 15 16 18 18 20 24 22 19 17 16 17 17 17 17 16 15 14 15 15 14 12 10 9 10 10 12 14 15 17 16 16 19 20 18 17 17 16 15 14 13 12 9 7 7 8 8 7 7 6 5 6 6 6 5 7 11 7 4 9 15 19 22 24 26 26 25 24 24 24 25 30 34 34 34
10 10 9 10 10 10 10 9 10 11 12 11 9 11 13 13 14 14 16 19 19 18 16 13 13 14 12 13 14 14 13 13 13 13 12 11 12 10 9 10 12 13 13 12 14 17 18 16 16 16 16 15 14 14 14 10 8 8 8 8 7 5 4 4 4 5 5 6 8 9 6 6 10 15 19 23 25 27 27 26 25 25 25 27 31 35 34 35
12 12 12 12 12 12 11 11 12 12 11 10 8 8 7 4 5 5 6 9 13 16 16 15 15 13 10 9 9 8 9 10 11 12 11 11 12 12 10 11 12 12 10 10 12 15 14 13 13 14 14 15 14 14 14 13 11 9 7 7 7 5 4 3 4 4 5 7 9 9 9 11 12 15 20 22 26 28 28 26 26 25 25 28 32 34 34 34
13 12 12 11 11 11 10 10 11 11 10 8 7 6 5 3 4 3 3 4 7 10 12 13 15 14 12 11 9 7 7 8 8 9 9 9 10 10 9 10 12 12 11 10 11 12 11 10 10 11 11 12 13 13 14 14 14 12 7 4 5 5 4 4 5 5 7 8 7 9 10 10 12 14 18 20 25 29 29 27 26 26 26 29 33 34 34 35
12 12 11 10 10 10 10 10 9 9 9 7 6 6 6 5 5 5 5 4 4 7 9 10 11 13 13 12 10 8 8 7 7 6 7 7 7 7 7 9 10 10 10 10 10 10 9 8 9 8 9 10 11 12 13 14 14 14 11 6 5 4 5 6 6 7 8 8 7 9 9 6 10 14 15 18 24 29 30 29 28 27 28 31 34 35 35 36
13 13 12 12 12 11 11 11 10 9 8 8 6 5 4 3 3 4 4 4 4 6 8 9 10 11 12 11 10 9 8 7 6 6 7 7 6 5 5 6 6 7 8 8 8 8 8 7 7 7 8 9 9 10 11 13 13 13 15 11 7 7 8 8 8 9 7 5 6 8 10 8 7 11 15 17 23 29 31 31 30 29 30 33 35 36 36 37
15 15 15 14 14 13 12 12 12 9 8 8 7 6 5 4 3 4 4 5 5 6 7 8 9 10 9 9 9 8 8 7 8 8 7 8 8 6 5 4 4 4 6 7 5 6 6 6 6 7 7 8 8 9 9 10 12 12 13 13 8 7 9 9 9 7 2 4 6 8 13 11 8 11 16 17 22 27 30 31 31 31 32 35 36 36 37 38
16 15 15 15 15 15 14 13 13 10 8 6 6 5 5 5 5 7 7 5 3 4 5 6 7 7 7 7 7 7 7 7 8 8 8 8 7 6 7 8 7 4 5 7 6 5 4 5 7 7 6 7 8 9 9 8 10 12 11 12 8 5 6 5 5 4 4 6 7 10 14 11 13 16 16 16 21 25 29 31 32 33 34 36 37 37 38 39
15 15 15 15 15 15 14 14 13 12 10 8 6 4 3 4 5 6 7 5 3 4 5 5 4 4 4 4 4 4 5 5 6 6 7 7 5 6 9 10 10 8 7 8 8 7 5 4 7 8 7 7 8 9 10 9 10 11 12 13 7 3 4 2 3 3 6 8 11 16 15 10 14 18 15 16 21 24 28 31 32 35 36 38 39 38 38 39
13 13 14 14 14 14 14 14 12 12 11 8 7 5 5 7 7 8 9 8 7 6 5 5 4 4 3 3 3 3 3 4 4 5 6 7 7 8 9 10 11 11 10 8 9 10 7 4 6 9 8 8 9 8 9 11 10 10 12 12 6 1 1 2 4 2 6 14 19 16 9 9 18 18 15 18 22 24 29 31 33 35 37 38 40 39 39 39
12 13 14 14 14 15 14 14 12 11 10 9 7 5 7 9 9 10 10 9 8 7 5 5 5 4 4 4 4 4 3 4 4 5 5 6 7 9 9 10 11 12 12 10 10 12 10 6 7 9 9 10 11 10 10 11 9 9 10 10 8 4 4 5 6 7 10 13 14 10 10 19 26 19 15 19 23 26 29 31 34 36 37 39 40 40 40 39
12 12 14 13 13 14 13 13 12 10 9 8 6 6 9 10 9 9 8 7 6 5 4 4 3 3 3 4 4 4 3 4 5 5 4 5 6 8 10 10 11 12 13 12 11 11 12 9 6 7 11 12 12 11 11 10 9 9 10 9 10 7 6 6 7 8 7 4 7 11 17 29 29 16 16 23 25 28 30 32 34 36 37 39 40 41 41 40
12 12 12 12 12 12 12 12 11 9 10 8 5 8 11 11 10 9 8 6 5 4 3 2 2 2 2 3 4 4 4 4 5 5 5 6 6 8 10 11 11 13 13 13 12 13 14 11 6 7 12 15 14 12 12 12 11 11 10 10 10 7 6 6 4 4 3 0 7 13 19 30 26 15 20 27 26 29 32 32 35 36 38 39 40 41 41 40
10 10 11 10 10 11 11 11 10 9 10 7 6 10 11 10 10 9 7 6 5 4 3 2 2 2 2 3 4 5 5 5 6 6 6 7 8 8 9 11 12 13 13 14 13 14 15 12 7 7 13 17 16 13 11 11 11 12 12 12 11 6 5 5 3 3 3 1 6 11 17 26 25 18 23 28 28 32 35 34 35 37 38 39 40 41 41 41
9 9 8 8 9 8 9 9 9 10 9 5 5 9 9 9 9 8 7 6 4 4 3 2 2 2 2 3 4 5 5 6 6 7 6 8 10 9 8 11 13 13 14 14 14 15 15 11 7 9 14 17 16 12 10 11 11 12 13 13 12 8 7 8 6 5 4 2 4 7 12 21 24 21 23 27 30 35 36 35 35 36 38 38 40 41 41 41
8 7 6 7 7 7 7 7 8 8 7 5 6 8 7 7 7 6 6 5 4 3 3 2 2 2 2 4 4 5 6 6 7 8 8 9 11 9 9 12 14 14 15 14 14 16 14 12 12 14 16 16 15 13 12 13 12 12 12 12 12 10 10 11 11 11 8 4 2 1 7 22 24 21 23 29 32 35 35 33 34 35 37 37 38 40 41 41
6 5 5 5 6 6 6 5 5 6 5 5 6 6 6 6 5 5 4 4 3 3 2 2 2 2 3 4 5 6 6 7 7 8 8 10 10 10 10 13 15 15 15 15 15 14 13 15 18 18 18 17 15 13 13 12 11 12 12 13 13 13 12 9 7 11 10 8 6 2 7 25 26 24 27 32 32 33 32 31 33 34 35 36 37 39 40 41
6 5 4 4 4 4 4 3 3 4 4 5 5 5 5 4 4 4 3 2 2 1 1 2 2 3 4 5 6 7 8 8 8 8 9 10 11 11 13 14 15 16 17 16 16 15 15 17 18 20 21 18 14 12 11 10 11 13 15 17 17 15 15 10 6 9 9 11 13 5 8 23 29 27 30 33 31 30 29 29 33 33 34 36 36 38 39 41
7 6 5 4 4 4 3 2 3 4 4 4 4 4 4 3 2 2 1 1 1 1 2 2 4 4 5 6 7 8 9 9 7 8 10 11 12 14 14 14 16 17 17 17 17 16 16 14 17 23 24 19 14 11 9 10 13 17 19 21 20 18 17 14 14 16 13 15 16 5 7 23 33 31 32 32 29 28 27 28 31 32 34 35 35 37 39 40
10 9 7 6 5 4 4 3 3 4 4 5 4 4 3 2 2 2 2 2 2 3 4 4 5 6 7 8 8 9 10 9 8 10 11 12 14 15 15 16 17 17 18 19 17 16 14 14 17 21 20 16 12 8 8 13 17 22 24 22 20 18 17 16 17 18 14 17 16 8 10 28 37 35 34 31 27 28 29 28 30 32 34 35 35 37 39 40
11 11 10 9 9 8 6 4 3 4 4 4 4 4 3 3 3 3 4 4 4 5 6 6 7 8 8 9 10 10 11 10 10 12 13 14 15 15 15 17 18 18 19 19 17 16 16 18 19 15 10 8 10 11 16 21 23 26 27 24 22 20 18 18 16 15 14 16 16 15 19 35 40 35 33 28 26 31 33 31 32 33 34 34 35 37 38 40
10 11 11 10 11 12 10 8 6 5 3 3 3 3 3 3 4 4 5 6 6 6 7 8 8 9 9 10 11 11 12 12 12 13 14 15 16 16 17 18 19 20 20 18 17 18 20 22 22 19 16 17 19 20 23 26 27 27 28 27 24 21 21 21 18 19 19 17 21 25 29 37 39 35 31 28 28 33 35 34 35 34 33 34 35 36 38 40
9 10 11 10 9 11 12 11 9 7 5 4 3 3 3 4 4 5 6 6 7 8 8 9 10 10 11 12 12 13 13 14 15 16 16 15 17 18 19 20 21 21 20 19 20 21 23 25 23 23 22 22 24 24 23 26 27 27 28 29 27 24 24 24 23 25 23 17 22 30 31 34 39 36 30 29 31 34 36 36 35 34 33 34 34 35 38 39
8 9 9 9 9 9 11 10 9 9 8 6 4 4 4 5 6 7 7 7 8 9 10 10 11 11 12 13 14 14 16 16 17 17 16 17 19 19 20 21 21 21 20 21 23 24 25 26 26 25 23 22 24 25 23 23 25 27 30 31 29 26 25 25 24 27 27 23 25 30 32 37 39 33 29 31 32 34 36 36 35 33 32 33 34 35 37 38
8 8 8 8 8 8 9 9 9 9 8 8 6 6 7 7 7 8 9 9 10 11 11 12 13 14 14 14 15 17 17 18 19 19 20 20 20 21 22 22 22 22 23 24 25 25 25 26 27 27 27 25 22 21 21 21 24 30 31 28 25 23 22 22 21 24 28 29 29 30 34 39 34 28 30 34 33 34 36 35 34 32 31 32 33 34 36 38
7 7 7 7 7 7 7 9 9 9 9 10 9 9 10 10 10 10 11 11 12 12 14 14 15 16 16 16 17 18 19 20 21 22 22 22 22 23 24 24 24 25 25 26 26 24 24 26 26 27 31 31 23 20 20 20 26 33 29 20 17 19 20 20 18 21 26 28 28 30 36 39 31 26 31 34 34 36 37 35 34 31 30 32 33 34 36 37
6 6 7 7 7 7 8 9 9 9 10 11 11 12 13 13 14 14 14 14 14 15 16 16 17 17 18 18 19 20 21 22 22 23 23 24 24 24 24 25 26 26 26 26 26 25 24 24 25 25 30 34 28 23 22 24 30 31 22 14 15 19 21 19 16 19 24 27 29 31 36 38 32 28 32 35 36 37 38 36 33 30 29 32 33 34 36 37
7 7 7 7 8 9 10 11 10 10 11 12 12 13 14 15 16 16 17 17 17 17 18 19 19 20 21 21 21 22 23 23 24 24 25 26 26 26 26 27 26 26 27 26 26 25 22 21 23 21 25 33 30 25 29 31 26 18 15 18 20 19 20 19 17 18 23 27 30 32 35 36 31 30 34 38 38 38 39 38 33 30 31 31 32 34 36 37
Wind_Direction
118 120 122 123 126 127 128 129 128 126 124 119 112 108 104 101 101 102 104 107 105 98 93 92 87 80 77 80 90 108 124 137 143 144 151 157 162 161 151 148 145 143 140 139 149 158 171 183 191 201 193 189 179 153 137 111 112 113 119 133 126 122 124 121 118 116 121 135 133 132 128 125 130 115 111 108 84 65 51 37 0 349 358 5 11 12 12 9
115 118 120 122 124 125 126 126 123 121 116 112 113 114 111 107 108 108 109 107 98 90 90 94 94 91 85 82 89 110 124 134 138 138 147 151 155 158 152 151 150 144 139 139 147 156 171 184 192 192 174 177 161 142 130 113 111 108 119 133 127 126 126 121 118 114 115 125 121 120 118 114 116 107 101 76 57 45 30 12 347 343 353 4 12 13 12 9
112 115 118 120 122 123 123 122 120 117 110 107 111 118 118 112 111 111 110 105 100 103 112 119 119 103 91 91 97 112 123 128 129 131 139 145 152 157 155 152 147 140 137 145 156 160 167 179 182 166 153 161 153 147 129 104 109 113 121 130 127 127 126 123 122 119 118 118 109 107 102 100 105 103 84 51 39 28 10 348 332 327 342 -0 11 13 11 9
109 111 114 116 117 118 118 117 115 111 106 103 107 119 123 118 114 112 108 107 107 108 109 115 118 108 102 100 97 104 115 120 123 130 136 142 151 154 154 148 141 138 141 154 158 149 146 157 165 151 147 158 157 143 119 98 116 125 124 123 122 122 123 122 122 124 126 121 104 91 87 90 97 88 71 43 27 14 357 329 316 313 333 356 9 12 10 8
103 104 108 110 111 112 113 112 111 110 109 107 109 116 120 118 112 107 106 105 103 97 94 93 89 99 118 110 99 99 105 112 120 130 134 136 145 147 143 133 123 122 129 143 142 135 138 151 161 151 146 158 149 115 114 117 128 133 128 123 117 116 122 123 121 124 122 113 101 84 77 81 82 69 58 31 10 357 341 317 311 310 330 354 7 10 9 7
99 101 105 107 108 110 110 110 111 113 115 116 116 116 116 113 108 106 107 106 104 98 92 90 85 91 105 107 103 100 103 112 119 124 125 127 133 132 126 117 114 116 123 129 127 131 141 151 155 147 145 154 136 115 123 126 126 134 131 126 118 114 120 117 117 121 112 100 91 72 57 58 49 40 25 343 332 332 324 311 311 312 331 353 5 7 8 6
101 102 104 107 108 109 110 112 114 116 118 118 116 114 112 108 106 105 104 104 106 106 102 96 90 92 102 104 98 97 107 111 115 118 118 122 128 127 124 120 119 121 128 131 130 140 146 150 147 140 143 143 130 127 130 124 126 141 130 122 115 114 116 105 105 109 99 86 71 47 21 19 5 350 330 316 316 322 318 310 311 316 332 351 2 4 5 4
104 104 105 107 108 109 111 112 114 115 114 112 109 107 103 99 98 96 95 97 100 108 114 106 93 93 101 101 97 103 108 106 110 115 117 125 129 131 132 129 128 128 129 134 138 145 148 150 143 135 144 140 131 133 130 122 126 133 118 112 111 112 105 92 93 95 91 75 47 26 359 351 329 315 315 319 324 327 322 316 318 321 331 347 356 360 1 3
103 104 105 107 109 109 110 110 111 110 107 104 101 98 94 91 91 92 92 90 91 97 101 102 97 95 95 94 106 123 110 105 111 117 122 129 131 136 137 134 136 131 126 133 141 147 144 143 139 133 147 147 134 127 122 120 122 120 112 109 109 108 96 85 87 86 83 65 36 18 354 334 314 314 323 325 328 332 330 325 325 325 330 340 349 354 358 1
102 102 103 105 106 106 106 105 103 101 98 96 94 94 93 91 91 90 85 79 80 86 93 99 99 100 101 103 131 134 109 108 115 119 125 130 133 135 130 125 127 121 120 132 140 142 131 129 134 130 138 140 123 113 112 112 109 108 110 112 108 99 90 84 81 72 66 56 36 21 5 349 330 323 324 324 327 334 335 330 328 327 327 333 343 350 355 359
100 100 101 101 101 100 99 98 97 95 92 91 92 94 96 94 90 83 77 74 73 74 77 80 83 90 99 120 154 128 108 111 115 118 124 126 127 121 112 110 108 106 110 124 128 121 116 120 127 124 125 120 109 108 109 103 99 99 101 109 108 97 87 80 74 65 57 48 31 17 10 3 353 342 334 328 327 332 333 332 330 328 325 328 338 346 352 356
99 99 98 97 96 96 96 96 96 95 93 91 90 90 92 90 86 81 78 78 78 77 76 77 81 86 101 139 143 119 109 113 114 115 116 114 112 106 105 107 105 104 103 109 109 103 106 111 111 112 113 107 104 109 106 101 103 105 101 102 106 102 91 79 72 65 51 37 28 18 10 7 2 356 347 340 340 339 337 335 330 329 325 325 335 343 349 353
98 97 96 95 95 95 96 97 97 96 91 87 86 86 86 85 85 85 83 82 84 85 86 91 98 107 138 137 116 107 107 109 107 107 106 103 101 100 101 103 104 105 104 107 101 96 97 95 95 103 98 90 107 112 106 105 106 105 106 106 108 108 101 84 71 61 44 29 27 19 12 12 8 3 358 354 353 352 349 342 334 332 329 327 333 341 346 350
96 96 95 95 95 95 95 95 94 91 86 84 83 83 84 86 86 84 82 80 81 82 84 91 101 112 127 112 98 99 102 100 100 102 101 98 98 100 99 99 101 100 101 105 100 97 93 85 87 103 95 89 104 108 106 106 103 100 102 108 110 107 99 83 62 48 36 20 17 10 7 15 15 8 4 1 359 358 356 350 342 338 334 330 332 338 343 349
96 94 93 93 92 92 92 91 89 86 86 86 85 85 85 84 83 82 81 78 78 79 80 86 94 102 105 98 92 91 91 94 98 99 97 96 97 98 97 98 98 96 99 100 94 91 91 85 78 92 98 101 103 103 105 103 102 100 97 101 100 91 87 75 48 34 25 12 8 359 358 10 15 10 7 4 1 360 358 354 348 343 337 332 332 335 342 349
95 92 91 89 88 88 88 88 86 85 86 88 88 86 83 82 81 81 79 76 76 77 79 83 88 94 94 88 83 84 88 95 96 91 91 92 89 87 91 94 93 90 89 89 88 85 88 94 95 93 99 103 99 97 98 96 98 98 93 92 86 77 73 64 42 29 19 8 0 350 353 4 8 8 8 4 3 2 358 354 347 342 338 332 330 334 343 350
93 91 89 87 86 84 83 82 83 85 86 87 87 83 81 81 80 79 79 79 78 78 82 84 85 89 85 80 82 86 89 90 88 86 85 85 83 81 84 87 87 86 86 88 91 88 90 101 108 102 97 96 97 96 92 92 94 95 93 88 80 72 64 52 38 29 17 7 359 349 353 4 5 5 7 4 4 2 358 353 345 339 337 333 330 334 344 350
88 86 83 81 79 78 78 78 78 81 84 84 83 82 82 78 76 78 79 78 77 79 79 79 85 86 81 82 86 84 81 81 82 83 82 82 84 82 81 83 88 90 87 85 87 89 95 99 97 94 91 89 92 92 90 93 91 89 90 84 80 74 61 49 38 31 20 11 4 352 355 10 14 11 9 4 2 1 358 354 348 343 339 335 331 336 345 349
83 81 79 76 74 74 74 73 73 73 75 77 77 77 76 76 76 76 78 81 84 82 76 76 83 84 82 85 84 80 79 80 80 81 81 83 84 84 86 89 92 90 86 86 89 90 90 90 86 82 81 82 83 83 83 85 83 82 81 76 74 68 55 42 29 23 17 13 9 1 1 15 24 22 15 7 2 1 0 356 352 348 342 337 333 338 345 347
80 79 79 79 77 77 76 75 73 69 67 68 68 68 72 79 83 85 93 96 87 78 73 72 76 79 81 82 82 83 83 81 80 82 83 84 85 85 87 86 84 84 84 85 84 83 82 80 75 69 71 73 72 73 72 71 70 64 58 55 50 46 41 31 21 17 14 13 14 12 11 18 25 25 18 9 4 2 0 357 353 349 344 339 335 339 345 345
77 78 79 81 83 84 83 80 77 72 68 68 69 73 82 90 91 96 105 95 81 74 71 70 72 74 74 73 75 78 82 84 85 84 82 82 80 79 77 78 83 85 81 79 81 86 86 71 62 58 60 60 58 62 58 54 53 36 25 15 6 17 26 22 16 13 12 12 16 19 24 28 26 23 18 10 6 4 1 358 354 350 346 342 339 340 344 342
76 77 78 81 85 88 87 83 77 72 68 69 75 84 93 97 94 97 101 90 80 75 72 72 73 72 71 69 69 71 79 87 85 82 78 76 76 79 83 85 86 84 80 78 82 87 78 62 56 54 52 51 51 52 45 40 36 23 15 5 359 14 22 18 10 7 7 10 12 8 21 31 25 20 17 10 6 5 2 1 357 353 350 346 342 341 341 339
78 80 81 85 88 89 87 80 72 67 65 66 72 81 90 94 94 94 94 88 81 76 73 72 73 72 72 73 74 77 84 85 84 81 79 78 80 87 93 88 82 84 83 77 71 75 69 59 53 50 47 45 43 41 38 32 22 12 10 9 9 16 21 13 3 357 355 356 354 338 335 19 21 15 12 8 4 3 3 4 1 357 353 348 344 342 339 337
76 80 86 91 93 90 80 67 58 59 63 67 75 84 87 88 89 89 89 86 82 78 77 75 75 74 76 80 84 86 84 82 83 82 83 87 86 88 89 84 82 82 79 72 67 71 71 62 54 51 46 44 43 39 35 29 20 12 11 14 13 12 8 359 355 347 341 338 338 337 323 344 10 6 4 4 0 360 2 3 3 359 354 350 346 343 340 336
67 77 87 92 94 89 77 65 60 64 72 83 96 97 94 91 87 82 80 79 74 73 75 77 80 79 80 84 86 87 84 82 85 85 88 88 81 82 82 81 79 74 73 74 70 70 70 63 57 55 51 48 47 42 36 29 20 17 16 18 16 10 2 351 351 340 337 331 326 341 340 325 358 1 358 359 358 357 359 359 360 358 353 348 345 343 341 336
72 82 88 91 91 86 84 80 76 79 85 95 110 111 107 100 86 75 70 67 61 61 64 69 75 74 78 86 87 87 85 83 85 85 83 79 74 72 71 73 74 70 72 73 70 69 67 62 56 54 53 49 46 44 38 29 23 21 16 17 15 6 355 339 339 335 336 333 324 337 340 310 340 1 357 356 357 355 356 356 355 354 350 345 343 342 340 336
79 84 87 88 86 83 85 84 83 85 88 96 112 125 129 114 71 55 59 57 42 44 54 59 66 69 76 90 90 89 90 84 80 76 72 71 69 65 62 64 68 68 63 60 67 68 63 60 54 49 49 46 44 41 33 28 28 20 5 11 13 356 340 327 327 323 320 325 323 326 325 305 316 353 356 353 356 355 355 355 351 351 348 343 341 340 338 336
75 77 78 78 76 78 81 81 84 85 84 92 106 122 135 113 70 45 64 70 25 30 49 56 64 69 70 77 81 86 91 82 73 69 63 59 59 59 55 56 62 63 58 57 68 72 66 60 54 47 46 44 42 36 28 27 25 16 358 339 354 355 340 323 316 309 310 320 321 318 325 308 301 339 355 348 350 354 354 355 351 349 347 342 341 339 337 336
66 66 67 69 70 74 75 76 83 82 78 87 107 124 123 93 76 64 71 83 40 39 54 57 64 67 64 67 71 73 74 71 66 60 52 48 48 48 46 48 53 56 56 56 62 68 63 53 49 44 40 40 37 30 25 23 19 13 5 331 299 309 323 326 315 309 307 304 311 319 330 318 302 330 351 345 345 349 350 353 352 350 346 342 340 339 337 338
64 65 67 69 71 71 72 72 77 84 82 79 94 126 126 86 77 69 71 83 68 62 65 65 67 66 63 66 68 69 71 71 69 61 54 49 40 32 30 30 38 44 45 45 50 53 49 40 35 30 31 30 27 22 20 20 16 10 6 351 308 280 299 306 299 310 312 288 296 314 324 322 305 327 341 339 341 344 346 349 351 349 345 342 341 340 339 340
66 68 68 68 68 67 68 68 69 80 91 86 86 94 93 91 79 77 99 103 88 77 71 70 71 69 66 64 66 69 69 66 64 58 51 48 42 34 30 19 12 20 20 19 23 31 33 26 17 17 17 13 13 13 7 10 13 8 1 357 337 298 305 305 300 312 307 277 292 297 310 305 275 306 330 333 334 340 344 346 348 346 342 342 343 341 340 341
67 68 68 66 65 63 64 64 63 70 81 89 94 90 91 88 72 89 118 118 96 95 86 80 80 76 69 63 62 61 59 59 59 52 47 49 43 35 42 37 26 15 5 7 2 350 351 356 1 358 355 357 359 0 358 354 2 1 356 2 359 339 341 325 303 308 255 263 289 296 302 291 278 305 329 330 329 337 343 345 345 343 341 342 344 343 341 342
66 66 63 59 59 59 61 62 61 64 69 78 87 91 106 98 81 103 122 122 121 122 106 94 90 83 75 67 59 55 55 54 54 52 47 45 33 30 41 37 32 30 14 6 3 352 336 329 347 341 331 340 338 342 350 343 344 350 358 10 14 18 23 320 280 308 280 278 296 300 299 287 297 319 334 332 330 337 343 344 342 340 340 342 344 343 341 341
61 58 56 55 56 56 57 58 61 65 67 72 80 92 106 98 98 114 115 114 122 124 115 104 98 85 77 69 54 45 36 32 33 35 34 29 20 24 32 30 27 24 15 7 4 2 350 311 332 338 324 323 325 323 332 332 329 338 354 6 7 3 72 272 267 270 286 299 305 300 286 291 308 320 333 339 342 342 342 343 340 338 338 340 343 342 340 340
54 54 55 56 56 55 53 52 56 62 66 70 76 98 108 103 108 114 110 115 124 123 116 106 95 79 67 58 48 35 25 25 13 6 11 8 9 18 25 22 17 14 11 7 4 1 349 315 314 335 332 325 320 308 313 322 321 326 337 348 347 318 263 272 278 271 284 305 309 289 278 307 315 316 329 344 349 347 344 342 339 337 336 338 340 340 339 340
49 53 55 54 52 51 48 47 48 53 62 67 75 92 98 106 116 115 111 119 125 128 125 106 86 71 58 45 39 29 17 17 9 4 358 348 0 14 16 12 7 7 6 3 4 357 346 326 302 329 343 337 325 309 303 308 311 318 321 327 335 315 276 281 283 280 288 302 299 285 296 317 324 326 334 341 346 348 346 342 338 335 334 335 338 339 338 339
45 49 51 48 46 46 45 45 46 51 61 66 79 89 93 102 110 109 110 116 118 124 126 103 68 57 46 34 36 29 18 14 6 2 1 354 351 356 4 5 359 358 358 357 357 350 343 333 306 318 339 339 332 313 297 295 297 306 308 315 328 318 283 288 282 298 342 256 280 284 296 313 319 325 336 338 341 344 343 342 338 332 331 334 335 337 338 338
40 44 45 41 42 44 43 44 42 48 57 61 78 88 93 102 104 105 106 106 108 108 103 90 70 57 40 30 29 25 21 15 7 359 358 358 349 344 353 358 353 350 350 349 347 344 343 338 324 322 332 336 331 315 301 293 290 296 302 310 318 306 277 286 289 308 326 281 284 290 298 309 311 319 335 337 336 338 340 340 335 329 330 333 334 336 337 337
36 38 40 34 34 34 37 41 38 44 52 51 74 88 95 102 102 105 104 102 104 97 90 83 64 43 27 19 16 15 11 6 4 2 358 356 351 345 344 349 350 348 344 342 340 339 338 331 324 326 330 331 327 316 305 297 292 293 297 306 310 299 281 283 277 265 266 252 289 308 310 312 321 330 333 335 334 335 338 336 330 327 329 333 334 335 336 336
30 29 31 27 23 18 23 28 27 39 51 53 69 86 98 102 103 106 103 100 96 90 85 74 50 30 12 2 357 355 355 354 355 355 354 353 351 348 344 345 347 344 342 342 337 334 331 320 314 320 329 331 324 314 303 297 295 290 297 308 307 300 293 290 280 264 252 235 241 47 298 303 329 349 335 332 335 335 336 332 326 326 328 332 334 334 335 335
19 12 20 20 10 6 9 9 12 25 39 53 67 82 94 100 103 104 105 98 90 87 78 57 32 14 355 348 348 344 341 339 340 346 348 349 351 348 342 342 343 342 341 339 336 332 325 317 311 315 328 329 319 308 297 295 295 291 301 311 309 307 297 290 284 266 250 239 249 168 274 300 334 353 334 334 338 335 334 328 323 326 329 332 334 333 334 335
11 2 6 358 347 353 356 350 7 21 33 57 68 77 88 97 98 97 99 86 74 63 41 14 350 348 338 333 336 337 336 329 326 335 340 341 345 342 338 339 340 340 339 336 335 330 322 314 308 313 325 327 319 308 295 296 300 299 305 310 312 310 295 277 261 268 260 248 260 247 254 301 335 345 331 336 340 332 330 325 324 327 330 333 333 333 334 334
19 16 7 347 331 337 344 345 20 33 40 59 69 69 74 82 83 74 57 38 9 333 334 330 328 330 326 327 327 328 334 329 319 324 329 331 335 335 334 335 335 335 335 334 331 326 321 314 309 315 321 322 319 311 298 304 310 308 309 309 306 304 298 286 265 269 271 257 260 234 231 298 328 336 330 338 338 330 330 327 325 329 331 333 333 333 335 334
27 29 24 13 1 352 345 353 39 55 53 58 64 59 56 52 37 16 356 342 327 323 320 317 322 321 318 324 324 324 330 328 318 320 322 325 328 330 330 330 331 330 330 329 325 320 317 315 313 318 324 327 326 320 308 312 313 309 310 310 306 301 301 294 274 266 265 262 257 208 241 298 321 329 328 336 336 330 333 331 329 331 332 333 333 334 335 335
27 31 31 30 27 21 12 12 35 52 52 50 49 42 34 22 4 346 337 328 319 319 316 313 317 317 316 318 319 320 322 320 317 317 319 321 323 324 325 326 327 327 326 325 320 316 313 313 313 313 311 306 307 310 311 313 312 310 311 313 311 304 298 295 281 256 253 264 253 231 266 302 320 329 330 335 333 331 334 332 330 333 334 333 333 335 336 335
23 29 31 33 34 31 29 30 29 25 25 27 29 22 11 0 348 334 327 321 317 316 314 312 313 313 313 314 315 316 315 315 315 314 315 318 319 320 320 321 323 324 323 321 318 316 313 311 312 307 297 294 300 307 312 312 309 308 310 312 308 304 298 292 273 256 262 270 267 273 291 304 316 331 336 333 331 330 331 330 330 334 334 332 332 335 336 336
21 27 27 27 30 27 26 29 27 18 11 359 347 343 329 322 320 315 311 310 311 310 307 306 307 308 308 308 308 310 310 310 311 311 312 313 315 317 316 317 319 319 321 321 318 316 311 309 309 305 302 303 305 310 312 308 304 304 307 307 305 305 298 285 272 272 277 267 274 299 311 304 310 330 336 330 330 328 326 328 329 332 333 330 332 336 336 336
16 22 21 19 20 16 16 17 15 13 10 356 339 326 312 300 297 297 296 295 297 298 298 299 300 300 301 301 302 305 305 306 306 306 307 308 311 313 313 313 315 315 318 318 316 315 311 308 308 305 303 305 307 309 309 302 300 303 305 304 305 304 292 282 281 284 279 265 277 307 314 303 312 332 333 327 329 325 323 325 327 330 330 327 332 336 335 337
10 13 13 12 12 9 7 2 356 355 354 345 334 323 314 301 291 290 288 286 285 286 288 290 290 292 293 293 295 298 299 302 304 303 304 305 307 309 310 311 312 313 315 315 314 314 308 305 308 307 305 306 308 308 304 300 302 306 307 306 303 296 284 278 285 288 280 276 288 307 308 307 321 337 329 326 327 323 322 323 324 329 327 325 332 335 335 336
7 6 3 3 358 352 348 345 340 335 334 332 326 319 314 305 296 291 288 285 284 283 284 286 287 287 289 289 291 294 297 299 300 300 301 304 305 307 309 309 311 312 312 312 311 309 305 303 308 309 306 306 311 310 303 302 308 310 310 306 294 287 285 281 285 289 284 284 297 305 303 308 327 336 326 325 326 323 322 322 324 328 325 325 331 333 334 336
11 4 355 349 339 330 327 328 326 320 320 321 318 315 312 308 303 297 293 292 289 287 286 286 286 285 288 291 293 295 296 296 297 298 300 302 303 305 306 307 308 309 309 309 307 306 304 302 307 310 305 304 312 314 307 307 309 307 305 307 298 290 288 285 283 287 287 291 300 301 300 310 325 329 323 324 325 323 322 322 325 327 323 324 330 332 333 335
10 2 352 340 331 326 321 318 315 312 310 309 308 308 307 306 305 301 300 299 298 296 294 291 291 291 292 295 295 296 296 296 297 298 299 300 302 303 304 304 305 306 307 306 304 303 303 302 305 307 299 301 309 314 311 313 311 304 310 321 313 296 287 283 281 289 296 298 300 301 305 314 321 322 322 323 323 322 321 322 326 325 321 324 329 330 331 334